FENGYUN 1C DEB, 30105

Orbit data source: Space-Track

FENGYUN 1C DEB, 30105 is space debris in SSO originally from a launch on Mon, 10 May 1999 UTC launched from the Taiyaun Space Center, China (TSC). Fengyun 1C debris stems from the Chinese weather satellite Fengyun-1C, which was intentionally destroyed by a Chinese anti-satellite missile in 2007. This event dramatically increased the amount of space debris, with thousands of trackable fragments posing hazards to satellites and human spaceflight. The Fengyun 1C debris cloud has become a focal point in discussions about space sustainability and the need for international regulations to prevent the creation of new debris.

Loading next visibility...
Identifier
30105, 1999-025RJ
Orbit
SSO
Country
Flag of CNCN / PRC
Related business
Manufacturer
Unknown
Mission
Spacecraft
Bus & Motor
Unknown
Mass
Unknown
Launch date (UTC)
1999-05-10 (27 years ago)
Launch vehicle
Unknown
Launch site
Taiyaun Space Center, China (TSC)
Object type
Payload
Rocket body
Debris
Shape & HBR
Unknown shape, 0.1 m
Radar Cross Section
Medium (>0.1 m² and <1 m²)

Expand to show TLE details & history
Last TLE update: 9 hours ago

TLE from 9 hours ago
0 FENGYUN 1C DEB
1 30105U 99025RJ  26254.17583878  .00000608  00000-0  24318-3 0  9995
2 30105  98.6190 238.7315 0197964   4.2830 355.9985 14.21859731 16323
Epoch: 2026-09-11T04:13Z
TLE epoch observation values (Epoch: 2026-09-11T04:13:12.470Z)
Latitude
-0.00004°
Longitude
-174.77341°
Altitude
679.846 km
Speed
7.591 km/s
True Right ascension
15h 54m 55s
True Declination
0° 00' 00"
Sunlit
Object was in daylight at epoch
Visualization orbit readout
Latitude
Unknown
Longitude
Unknown
Altitude
Unknown
Speed
Unknown
Apparent Right ascension
Unknown
Apparent Declination
Unknown
Sunlit
N/A
Visualization observer readout
Local Sidereal Time
05:39:48
Azimuth
Unknown
Elevation
Unknown
Doppler factor
Unknown
Orbital elements
Apogee altitude
958.643 km
Perigee altitude
673.798 km
Semi-major axis
7,194.357 km
Eccentricity
0.0198
Inclination
98.619°
RAAN
238.7315°
Arg. of periapsis
4.283°
True anomaly
355.8362°
Mean anomaly
355.9985°
Eccentric anomaly
355.91775°
Mean motion
3.55676 °/min
Orbital period
101.22 mins
BSTAR
0.00024318
Loading maneuver chart data...
Computing Atmospheric mass density...
Loading historical data...
Loading historical data...
Loading historical data...
Loading historical data...
Loading historical data...
Loading historical data...
Loading historical data...

Documentation

Showing up to 5 results
|